Regional Weather Roundup
Issued by NWS Charleston, SC

Home | Current Version | Previous Version | Text Only | Print | Product List | Glossary On
Versions: 1 2 3 4 5 6 7 8 9 10 11 12 13 14 15 16 17 18 19 20 21 22 23 24 25 26 27 28 29 30 31 32 33 34 35 36 37 38 39 40 41 42 43 44 45 46 47 48 49 50
000
ASUS42 KCHS 291227
RWRCHS

REGIONAL WEATHER ROUNDUP
NATIONAL WEATHER SERVICE CHARLESTON SC
800 AM EDT SAT APR 29 2017

NOTE: "FAIR" INDICATES FEW OR NO CLOUDS BELOW 12,000 FEET WITH NO
SIGNIFICANT WEATHER AND/OR OBSTRUCTIONS TO VISIBILITY.

NOT ALL STATIONS ARE QUALITY CONTROLLED. USE DATA WITH CAUTION...
ESPECIALLY DEWPOINT OBSERVATIONS.

SCZ027-030-031-034>040-042>050-291300-
...SOUTHEAST SOUTH CAROLINA...

CITY           SKY/WX    TMP DP  RH WIND       PRES   REMARKS
N CHARLESTON   PTSUNNY   75  72  90 S6        30.21R
6HR MIN TEMP:  73; 6HR MAX TEMP:  75;

WATERFRONT PRK   N/A     74  73  96 S5        30.18R
JOHNS ISLAND   CLOUDY    75  75 100 CALM      30.22R FOG
PINOPOLIS        N/A     73  72  94 CALM      30.12R
MONCKS CORNER  FAIR      75  72  88 S5        30.22R
SUMMERVILLE    FAIR      75  72  88 S3        30.22R
BEAUFORT MCAS  PTSUNNY   77  74  90 S7        30.20R
6HR MIN TEMP:  75; 6HR MAX TEMP:  77;

BEAUFORT ARPT  CLOUDY    75  72  88 S8        30.20R FOG
HILTON HEAD IS PTSUNNY   75  75 100 S7        30.20R
WALTERBORO     MOSUNNY   75  72  88 S6        30.22R
ALLENDALE      FAIR      73  72  94 SE6       30.19R

...SOUTHERN MIDLANDS AND PEE DEE...

CITY           SKY/WX    TMP DP  RH WIND       PRES   REMARKS
GEORGETOWN     PTSUNNY   73  73 100 S3        30.25R
KINGSTREE      PTSUNNY   73  70  88 SE6       30.22S
ORANGEBURG     PTSUNNY   72  71  97 SE3       30.20R
6HR MIN TEMP:  72; 6HR MAX TEMP:  74;

BARNWELL       CLOUDY    75  73  94 SE6       30.20R
AIKEN          CLOUDY    70  68  94 SE6       30.23R
MANNING        FAIR      73  70  88 S6G20     30.21S
COLUMBIA       MOSUNNY   73  69  87 SE5       30.19R
6HR MIN TEMP:  71; 6HR MAX TEMP:  75;

SUMTER         SUNNY     73  70  91 SE3       30.19R
6HR MIN TEMP:  71; 6HR MAX TEMP:  73;

FLORENCE       MOSUNNY   74  72  93 S7        30.22R
6HR MIN TEMP:  72; 6HR MAX TEMP:  74;

MYRTLE BEACH   MOSUNNY   75  73  94 S7        30.24
N MYRTLE BEACH PTSUNNY   75  73  93 S8        30.23R
6HR MIN TEMP:  73; 6HR MAX TEMP:  75;


$$

GAZ063-065-086>088-099>101-113>116-118-119-134>141-150-291300-
...SOUTHEAST GEORGIA...

CITY           SKY/WX    TMP DP  RH WIND       PRES   REMARKS
SAVANNAH ARPT  PTSUNNY   76  70  82 S9        30.19R
6HR MIN TEMP:  75; 6HR MAX TEMP:  76;

HUNTER AAF     PTSUNNY   77  77 100 S6        30.17R
6HR MIN TEMP:  75; 6HR MAX TEMP:  76;

FORT STEWART   SUNNY     74  71  89 SE7       30.15R
6HR MIN TEMP:  73; 6HR MAX TEMP:  75;

STATESBORO     MOSUNNY   75  75 100 S3        30.19R
SYLVANIA       MOSUNNY  N/A N/A N/A CALM      30.20R
CLAXTON        FAIR     N/A N/A N/A E5        30.18R

...CSRA...CENTRAL AND FAR SOUTHEAST GEORGIA...

CITY           SKY/WX    TMP DP  RH WIND       PRES   REMARKS
THOMSON        PTSUNNY   72  69  89 SW8       30.24R
AUGUSTA-BUSH   CLOUDY    73  71  93 SE5       30.17R
6HR MIN TEMP:  70; 6HR MAX TEMP:  77;

AUGUSTA-DANIEL CLOUDY    73  68  84 SE7       30.19R
SWAINSBORO     CLOUDY    73  72  94 S6        30.19R
VIDALIA        CLOUDY    77  72  83 S9        30.17R
EASTMAN        FAIR      74  68  81 SE6       30.18R
HAZLEHURST     FAIR      75  75 100 S5        30.15R
ALMA           PTSUNNY   74  72  93 SE7       30.15R
6HR MIN TEMP:  71; 6HR MAX TEMP:  74;

WAYCROSS       PTSUNNY   77  77 100 S8        30.16R
JESUP          FAIR      77  70  78 S6        30.18R
BAXLEY         PTSUNNY   75  75 100 S6        30.16R
BRUNSWICK      CLOUDY    79  73  83 S6        30.18R
SAINT SIMONS   CLOUDY    76  73  91 S9        30.17R
6HR MIN TEMP:  76; 6HR MAX TEMP:  76;


$$

SCZ027-028-034-036>038-045-046-048>050-GAZ119-141-291300-
...LAKE AND SUPPLEMENTAL COASTAL OBSERVATIONS...

STATION/POSITION TIME  TEMP    WIND        PRES    WAVE   SWELL
                       AIR SEA DIR/SP/G            HT/PER HT/PER/DIR
                 (UTC) (F)     (DEG/KT/KT) (MB)    (FT/S) (FT/S/D)
WINYAH BAY       1130   75     210/  3     1023.0R
LAKE MURRAY      1220   72     170/  8/ 12 1022.0
ACE BASIN NERRS  1145   76        CALM     1022.0S
FORT PULASKI     1200   76 76  160/  5/  8 1022.7
SAPELO ISLAND    1200   76     170/ 10     1022.0

$$

ANZ835-935-AMZ111-154-330-350-352-354-370-450-454-472-291300-
...C-MAN AND BUOY OBSERVATIONS...

STATION/POSITION TIME  TEMP    WIND        PRES    WAVE   SWELL
                       AIR SEA DIR/SP/G            HT/PER HT/PER/DIR
                 (UTC) (F)     (DEG/KT/KT) (MB)    (FT/S) (FT/S/D)
BUOY 41004       1210   75 74  170/  6/  8 1023.4
BUOY 41008       1150   74 73  160/  8/ 10 1021.4R   4/ 6   3/130/ 6
FOLLY BEACH CMAN 1200   74     190/  5/  6 1023.7R
CAPERS NEARSHORE 1208   74 74  160/  4/  6 1023.3R
FRIPP NEARSHORE  1208   74 73  170/ 16/ 17 1022.5R


STATION/POSITION TIME  TEMP    WIND        PRES    WAVE   SWELL
                       AIR SEA DIR/SP/G            HT/PER HT/PER/DIR
                 (UTC) (F)     (DEG/KT/KT) (MB)    (FT/S) (FT/S/D)
5E ST. MARYS GA  1200      74                N/A     3/ 5
FRYING PAN BUOY  1210   75 73  190/ 10/ 14 1024.2
BUOY 41025       1150   77 76  230/ 14/ 16 1023.7R   4/ 6   2/130/ 7
CAPE LOOKOUT NC  1200   74     250/  8/ 10 1024.0R
BUOY 41002       1150   74 76  150/ 10/ 10 1025.2R   4/ 7   3/110/ 7
BUOY 41010       1210   77 78  130/ 14/ 16 1022.5
ST AUGUSTINE FL  1200   75 76  160/ 16/ 18 1022.1R


$$




USA.gov is the U.S. government's official web portal to all federal, state and local government web resources and services.